| time (UTC) | temp F | wind direction | speed MPH | gust MPH | rain 1hr in | rain 24hr in | rain mn in | humidity % | barometer mb |
| 20260905012516 | 49 | 116 | 0.0 | 0.0 | 0.00 | 0.00 | 0.00 | 64 | 1019.5 |
| 20260905012016 | 49 | 116 | 0.0 | 0.0 | 0.00 | 0.00 | 0.00 | 62 | 1019.5 |
| 20260905011553 | 48 | 116 | 0.0 | 0.0 | 0.00 | 0.00 | 0.00 | 62 | 1019.4 |
| 20260905011020 | 49 | 116 | 0.0 | 0.0 | 0.00 | 0.00 | 0.00 | 63 | 1019.3 |
| 20260905010044 | 49 | 117 | 0.0 | 0.0 | 0.00 | 0.00 | 0.00 | 62 | 1019.4 |
| 20260905005523 | 49 | 116 | 0.0 | 0.0 | 0.00 | 0.00 | 0.00 | 62 | 1019.6 |
| 20260905005020 | 49 | 116 | 0.0 | 0.0 | 0.00 | 0.00 | 0.00 | 62 | 1019.5 |
| 20260905004550 | 50 | 117 | 0.0 | 0.0 | 0.00 | 0.00 | 0.00 | 63 | 1019.4 |
| 20260905004019 | 50 | 117 | 0.0 | 0.0 | 0.00 | 0.00 | 0.00 | 62 | 1019.3 |
| 20260905003519 | 50 | 117 | 0.0 | 0.0 | 0.00 | 0.00 | 0.00 | 62 | 1019.1 |
| 20260905003048 | 50 | 117 | 0.0 | 0.0 | 0.00 | 0.00 | 0.00 | 62 | 1019.2 |
| 20260905002517 | 51 | 117 | 0.0 | 0.0 | 0.00 | 0.00 | 0.00 | 62 | 1019.1 |
| 20260905002018 | 51 | 117 | 0.0 | 0.0 | 0.00 | 0.00 | 0.00 | 61 | 1019.3 |
| 20260905001544 | 51 | 116 | 0.0 | 0.0 | 0.00 | 0.00 | 0.00 | 59 | 1019.3 |
| 20260905000518 | 52 | 117 | 0.0 | 0.0 | 0.00 | 0.00 | 0.00 | 55 | 1019.1 |
| 20260905000044 | 52 | 117 | 0.0 | 0.0 | 0.00 | 0.00 | 0.00 | 54 | 1019.2 |
| 20260904235519 | 52 | 117 | 0.0 | 0.0 | 0.00 | 0.00 | 0.00 | 53 | 1019.3 |
| 20260904235023 | 52 | 117 | 0.0 | 0.0 | 0.00 | 0.00 | 0.00 | 53 | 1019.2 |
| 20260904234548 | 53 | 117 | 0.0 | 6.0 | 0.00 | 0.00 | 0.00 | 53 | 1019.2 |
| 20260904234020 | 52 | 117 | 0.0 | 6.0 | 0.00 | 0.00 | 0.00 | 55 | 1019.3 |
| 20260904233519 | 52 | 117 | 0.0 | 1.0 | 0.00 | 0.00 | 0.00 | 56 | 1019.2 |
| 20260904233054 | 52 | 117 | 0.0 | 1.0 | 0.00 | 0.00 | 0.00 | 55 | 1019.2 |
| 20260904232519 | 52 | 117 | 0.0 | 4.0 | 0.00 | 0.00 | 0.00 | 56 | 1019.2 |
| 20260904232020 | 52 | 117 | 0.0 | 6.0 | 0.00 | 0.00 | 0.00 | 57 | 1019.1 |
| 20260904231550 | 52 | 118 | 0.0 | 6.0 | 0.00 | 0.00 | 0.00 | 56 | 1019.2 |
| 20260904231018 | 53 | 118 | 0.0 | 1.0 | 0.00 | 0.00 | 0.00 | 56 | 1018.9 |
| 20260904230519 | 53 | 117 | 0.0 | 8.0 | 0.00 | 0.00 | 0.00 | 54 | 1018.9 |
| 20260904230045 | 53 | 117 | 0.0 | 8.0 | 0.00 | 0.00 | 0.00 | 56 | 1018.9 |
| 20260904225523 | 53 | 117 | 0.0 | 6.0 | 0.00 | 0.00 | 0.00 | 54 | 1019.0 |
| 20260904225019 | 53 | 117 | 0.0 | 6.0 | 0.00 | 0.00 | 0.00 | 55 | 1019.1 |
| 20260904224547 | 53 | 117 | 0.0 | 10.0 | 0.00 | 0.00 | 0.00 | 56 | 1019.1 |
| 20260904224020 | 53 | 118 | 1.0 | 10.0 | 0.00 | 0.00 | 0.00 | 56 | 1018.9 |
| 20260904223520 | 53 | 117 | 0.0 | 11.0 | 0.00 | 0.00 | 0.00 | 57 | 1018.8 |
| 20260904223043 | 53 | 118 | 2.0 | 12.0 | 0.00 | 0.00 | 0.00 | 56 | 1018.8 |
| 20260904222518 | 54 | 118 | 3.0 | 12.0 | 0.00 | 0.00 | 0.00 | 56 | 1018.8 |
| 20260904222017 | 54 | 117 | 1.0 | 8.0 | 0.00 | 0.00 | 0.00 | 55 | 1018.8 |
| 20260904221541 | 54 | 117 | 0.0 | 4.0 | 0.00 | 0.00 | 0.00 | 56 | 1018.8 |
| 20260904221019 | 54 | 116 | 0.0 | 6.0 | 0.00 | 0.00 | 0.00 | 55 | 1018.7 |
| 20260904220520 | 54 | 117 | 1.0 | 9.0 | 0.00 | 0.00 | 0.00 | 57 | 1018.7 |
| 20260904220049 | 54 | 117 | 0.0 | 9.0 | 0.00 | 0.00 | 0.00 | 57 | 1018.9 |
| 20260904215518 | 54 | 121 | 0.0 | 9.0 | 0.00 | 0.00 | 0.00 | 57 | 1018.7 |
| 20260904215017 | 54 | 118 | 3.0 | 9.0 | 0.00 | 0.00 | 0.00 | 56 | 1018.7 |
| 20260904214548 | 54 | 119 | 1.0 | 10.0 | 0.00 | 0.00 | 0.00 | 58 | 1018.7 |
| 20260904214024 | 54 | 119 | 3.0 | 10.0 | 0.00 | 0.00 | 0.00 | 56 | 1018.8 |
| 20260904213520 | 55 | 118 | 2.0 | 10.0 | 0.00 | 0.00 | 0.00 | 58 | 1018.6 |
| 20260904213049 | 54 | 118 | 2.0 | 10.0 | 0.00 | 0.00 | 0.00 | 58 | 1018.8 |
| 20260904212516 | 54 | 117 | 1.0 | 8.0 | 0.00 | 0.00 | 0.00 | 58 | 1018.8 |
| 20260904212021 | 55 | 116 | 1.0 | 8.0 | 0.00 | 0.00 | 0.00 | 58 | 1018.8 |
| 20260904211543 | 54 | 117 | 0.0 | 10.0 | 0.00 | 0.00 | 0.00 | 60 | 1018.6 |
| 20260904210518 | 54 | 117 | 1.0 | 8.0 | 0.00 | 0.00 | 0.00 | 59 | 1018.6 |
| 20260904210046 | 53 | 117 | 1.0 | 8.0 | 0.00 | 0.00 | 0.00 | 62 | 1018.6 |
| 20260904205517 | 52 | 117 | 1.0 | 9.0 | 0.00 | 0.00 | 0.00 | 63 | 1018.4 |
| 20260904205020 | 51 | 117 | 1.0 | 9.0 | 0.00 | 0.00 | 0.00 | 63 | 1018.2 |
| 20260904204548 | 50 | 117 | 2.0 | 9.0 | 0.00 | 0.00 | 0.00 | 64 | 1018.3 |
| 20260904204019 | 50 | 117 | 0.0 | 6.0 | 0.00 | 0.00 | 0.00 | 62 | 1018.2 |
| 20260904203518 | 51 | 117 | 0.0 | 6.0 | 0.00 | 0.00 | 0.00 | 62 | 1018.2 |
| 20260904203047 | 50 | 117 | 0.0 | 6.0 | 0.00 | 0.00 | 0.00 | 61 | 1018.4 |
| 20260904201544 | 50 | 119 | 0.0 | 6.0 | 0.00 | 0.00 | 0.00 | 62 | 1018.2 |
| 20260904200519 | 49 | 117 | 0.0 | 7.0 | 0.00 | 0.00 | 0.00 | 60 | 1018.1 |
| 20260904200045 | 49 | 117 | 0.0 | 4.0 | 0.00 | 0.00 | 0.00 | 60 | 1018.1 |
| 20260904195518 | 49 | 116 | 0.0 | 0.0 | 0.00 | 0.00 | 0.00 | 58 | 1018.1 |
| 20260904195018 | 48 | 117 | 0.0 | 0.0 | 0.00 | 0.00 | 0.00 | 61 | 1018.1 |
| 20260904194549 | 48 | 117 | 0.0 | 0.0 | 0.00 | 0.00 | 0.00 | 60 | 1018.2 |
| 20260904194020 | 48 | 117 | 0.0 | 0.0 | 0.00 | 0.00 | 0.00 | 62 | 1018.1 |
| 20260904193518 | 48 | 117 | 0.0 | 0.0 | 0.00 | 0.00 | 0.00 | 63 | 1018.0 |
| 20260904193048 | 48 | 117 | 0.0 | 1.0 | 0.00 | 0.00 | 0.00 | 65 | 1017.9 |
| 20260904192521 | 48 | 117 | 0.0 | 3.0 | 0.00 | 0.00 | 0.00 | 64 | 1017.9 |
| 20260904191543 | 48 | 117 | 0.0 | 4.0 | 0.00 | 0.00 | 0.00 | 66 | 1018.0 |
| 20260904190041 | 49 | 117 | 0.0 | 4.0 | 0.00 | 0.00 | 0.00 | 67 | 1017.9 |
| 20260904185517 | 49 | 117 | 0.0 | 7.0 | 0.00 | 0.00 | 0.00 | 66 | 1017.8 |
| 20260904185017 | 50 | 120 | 0.0 | 9.0 | 0.00 | 0.00 | 0.00 | 66 | 1018.0 |
| 20260904184601 | 50 | 117 | 0.0 | 9.0 | 0.00 | 0.00 | 0.00 | 66 | 1017.8 |
| 20260904184017 | 52 | 117 | 1.0 | 8.0 | 0.00 | 0.00 | 0.00 | 63 | 1017.9 |
| 20260904183519 | 52 | 117 | 1.0 | 8.0 | 0.00 | 0.00 | 0.00 | 64 | 1017.8 |
| 20260904183045 | 52 | 117 | 1.0 | 7.0 | 0.00 | 0.00 | 0.00 | 63 | 1017.6 |
| 20260904182023 | 52 | 117 | 0.0 | 9.0 | 0.00 | 0.00 | 0.00 | 65 | 1017.6 |
| 20260904181543 | 52 | 117 | 0.0 | 4.0 | 0.00 | 0.00 | 0.00 | 68 | 1017.5 |
| 20260904181022 | 52 | 117 | 0.0 | 4.0 | 0.00 | 0.00 | 0.00 | 69 | 1017.6 |
| 20260904180520 | 52 | 117 | 0.0 | 8.0 | 0.00 | 0.00 | 0.00 | 67 | 1017.4 |
| 20260904180054 | 52 | 117 | 0.0 | 4.0 | 0.00 | 0.00 | 0.00 | 72 | 1017.4 |
| 20260904175517 | 52 | 117 | 0.0 | 4.0 | 0.00 | 0.00 | 0.00 | 66 | 1017.6 |
| 20260904175017 | 52 | 117 | 0.0 | 6.0 | 0.00 | 0.00 | 0.00 | 67 | 1017.5 |
| 20260904174549 | 53 | 118 | 0.0 | 6.0 | 0.00 | 0.00 | 0.00 | 69 | 1017.4 |
| 20260904174018 | 53 | 117 | 0.0 | 7.0 | 0.00 | 0.00 | 0.00 | 70 | 1017.4 |
| 20260904173050 | 54 | 117 | 0.0 | 8.0 | 0.00 | 0.00 | 0.00 | 69 | 1017.4 |
| 20260904171558 | 53 | 117 | 0.0 | 7.0 | 0.00 | 0.00 | 0.00 | 74 | 1017.3 |
| 20260904171019 | 53 | 117 | 0.0 | 6.0 | 0.00 | 0.00 | 0.00 | 69 | 1017.2 |
| 20260904170558 | 53 | 117 | 0.0 | 3.0 | 0.00 | 0.00 | 0.00 | 73 | 1017.1 |
| 20260904165517 | 52 | 117 | 1.0 | 8.0 | 0.00 | 0.00 | 0.00 | 75 | 1017.1 |
| 20260904165022 | 52 | 117 | 0.0 | 7.0 | 0.00 | 0.00 | 0.00 | 75 | 1017.1 |
| 20260904164548 | 53 | 117 | 0.0 | 3.0 | 0.00 | 0.00 | 0.00 | 71 | 1017.1 |
| 20260904164018 | 53 | 117 | 0.0 | 0.0 | 0.00 | 0.00 | 0.00 | 73 | 1016.9 |
| 20260904163519 | 52 | 117 | 0.0 | 3.0 | 0.00 | 0.00 | 0.00 | 72 | 1016.9 |
| 20260904163050 | 52 | 117 | 0.0 | 3.0 | 0.00 | 0.00 | 0.00 | 71 | 1016.9 |
| 20260904161552 | 52 | 116 | 0.0 | 0.0 | 0.00 | 0.00 | 0.00 | 73 | 1016.9 |
| 20260904160522 | 51 | 117 | 0.0 | 0.0 | 0.00 | 0.00 | 0.00 | 77 | 1016.8 |
| 20260904160049 | 50 | 117 | 0.0 | 0.0 | 0.00 | 0.00 | 0.00 | 78 | 1016.8 |
| 20260904155519 | 50 | 116 | 0.0 | 0.0 | 0.00 | 0.00 | 0.00 | 78 | 1016.7 |
| 20260904155017 | 50 | 117 | 0.0 | 0.0 | 0.00 | 0.00 | 0.00 | 78 | 1016.6 |
| 20260904154549 | 49 | 117 | 0.0 | 0.0 | 0.00 | 0.00 | 0.00 | 79 | 1016.5 |
| 20260904154018 | 49 | 118 | 0.0 | 0.0 | 0.00 | 0.00 | 0.00 | 80 | 1016.6 |
| 20260904153101 | 49 | 115 | 0.0 | 0.0 | 0.00 | 0.00 | 0.00 | 76 | 1016.5 |
| 20260904152518 | 49 | 116 | 0.0 | 0.0 | 0.00 | 0.00 | 0.00 | 77 | 1016.5 |
| 20260904152018 | 49 | 116 | 0.0 | 0.0 | 0.00 | 0.00 | 0.00 | 80 | 1016.5 |
| 20260904151548 | 48 | 116 | 0.0 | 0.0 | 0.00 | 0.00 | 0.00 | 81 | 1016.6 |
| 20260904151024 | 47 | 116 | 0.0 | 0.0 | 0.00 | 0.00 | 0.00 | 83 | 1016.4 |
| 20260904150519 | 46 | 116 | 0.0 | 0.0 | 0.00 | 0.00 | 0.00 | 83 | 1016.2 |
| 20260904150050 | 45 | 116 | 0.0 | 0.0 | 0.00 | 0.00 | 0.00 | 84 | 1016.4 |
| 20260904144542 | 43 | 116 | 0.0 | 0.0 | 0.00 | 0.00 | 0.00 | 88 | 1016.1 |
| 20260904143051 | 42 | 116 | 0.0 | 0.0 | 0.00 | 0.00 | 0.00 | 89 | 1016.1 |
| 20260904142518 | 42 | 116 | 0.0 | 0.0 | 0.00 | 0.00 | 0.00 | 89 | 1016.1 |
| 20260904142020 | 42 | 116 | 0.0 | 0.0 | 0.00 | 0.00 | 0.00 | 89 | 1016.1 |
| 20260904141609 | 41 | 116 | 0.0 | 0.0 | 0.00 | 0.00 | 0.00 | 89 | 1016.0 |
| 20260904141018 | 41 | 116 | 0.0 | 0.0 | 0.00 | 0.00 | 0.00 | 89 | 1016.0 |
| 20260904140520 | 41 | 116 | 0.0 | 0.0 | 0.00 | 0.00 | 0.00 | 88 | 1015.9 |
| 20260904140045 | 41 | 116 | 0.0 | 0.0 | 0.00 | 0.00 | 0.00 | 88 | 1015.8 |
| 20260904134557 | 41 | 116 | 0.0 | 0.0 | 0.00 | 0.00 | 0.00 | 88 | 1015.7 |
| 20260904133517 | 41 | 116 | 0.0 | 0.0 | 0.00 | 0.00 | 0.00 | 88 | 1015.6 |
| 20260904133054 | 41 | 116 | 0.0 | 0.0 | 0.00 | 0.00 | 0.00 | 88 | 1015.5 |
| 20260904132019 | 41 | 116 | 0.0 | 0.0 | 0.00 | 0.00 | 0.00 | 88 | 1015.2 |
| 20260904131610 | 40 | 116 | 0.0 | 0.0 | 0.00 | 0.00 | 0.00 | 88 | 1015.3 |
| 20260904131018 | 40 | 116 | 0.0 | 0.0 | 0.00 | 0.00 | 0.00 | 88 | 1015.1 |
| 20260904130048 | 40 | 116 | 0.0 | 0.0 | 0.00 | 0.00 | 0.00 | 87 | 1015.0 |
| 20260904124552 | 40 | 116 | 0.0 | 0.0 | 0.00 | 0.00 | 0.00 | 87 | 1015.1 |
| 20260904123106 | 40 | 116 | 0.0 | 0.0 | 0.00 | 0.00 | 0.00 | 86 | 1015.0 |
| 20260904122019 | 40 | 116 | 0.0 | 0.0 | 0.00 | 0.00 | 0.00 | 87 | 1014.9 |
| 20260904121549 | 40 | 116 | 0.0 | 0.0 | 0.00 | 0.00 | 0.00 | 86 | 1014.9 |
| 20260904120054 | 41 | 116 | 0.0 | 0.0 | 0.00 | 0.00 | 0.00 | 85 | 1014.5 |
| 20260904114553 | 41 | 115 | 0.0 | 0.0 | 0.00 | 0.00 | 0.00 | 83 | 1014.5 |
| 20260904113055 | 42 | 116 | 0.0 | 0.0 | 0.00 | 0.00 | 0.00 | 82 | 1014.5 |
| 20260904112518 | 42 | 116 | 0.0 | 0.0 | 0.00 | 0.00 | 0.00 | 81 | 1014.5 |
| 20260904112017 | 42 | 116 | 0.0 | 0.0 | 0.00 | 0.00 | 0.00 | 81 | 1014.4 |
| 20260904111554 | 42 | 116 | 0.0 | 0.0 | 0.00 | 0.00 | 0.00 | 80 | 1014.4 |
| 20260904111019 | 42 | 116 | 0.0 | 0.0 | 0.00 | 0.00 | 0.00 | 80 | 1014.3 |
| 20260904110056 | 42 | 116 | 0.0 | 0.0 | 0.00 | 0.00 | 0.00 | 79 | 1014.3 |
| 20260904105023 | 42 | 116 | 0.0 | 0.0 | 0.00 | 0.00 | 0.00 | 80 | 1014.2 |
| 20260904104549 | 42 | 116 | 0.0 | 0.0 | 0.00 | 0.00 | 0.00 | 80 | 1014.1 |
| 20260904104020 | 42 | 116 | 0.0 | 0.0 | 0.00 | 0.00 | 0.00 | 79 | 1014.0 |
| 20260904103517 | 42 | 116 | 0.0 | 0.0 | 0.00 | 0.00 | 0.00 | 78 | 1014.0 |
| 20260904103048 | 42 | 116 | 0.0 | 0.0 | 0.00 | 0.00 | 0.00 | 78 | 1013.8 |
| 20260904101603 | 43 | 116 | 0.0 | 0.0 | 0.00 | 0.00 | 0.00 | 76 | 1013.6 |
| 20260904100052 | 43 | 116 | 0.0 | 0.0 | 0.00 | 0.00 | 0.00 | 76 | 1013.6 |
| 20260904095530 | 43 | 116 | 0.0 | 0.0 | 0.00 | 0.00 | 0.00 | 76 | 1013.6 |
| 20260904095018 | 43 | 116 | 0.0 | 0.0 | 0.00 | 0.00 | 0.00 | 76 | 1013.5 |
| 20260904094538 | 43 | 116 | 0.0 | 0.0 | 0.00 | 0.00 | 0.00 | 77 | 1013.5 |
| 20260904094018 | 43 | 116 | 0.0 | 0.0 | 0.00 | 0.00 | 0.00 | 76 | 1013.5 |
| 20260904093517 | 43 | 116 | 0.0 | 0.0 | 0.00 | 0.00 | 0.00 | 76 | 1013.5 |
| 20260904092521 | 43 | 116 | 0.0 | 0.0 | 0.00 | 0.00 | 0.00 | 76 | 1013.5 |
| 20260904092019 | 43 | 116 | 0.0 | 0.0 | 0.00 | 0.00 | 0.00 | 76 | 1013.6 |
| 20260904091020 | 44 | 116 | 0.0 | 0.0 | 0.00 | 0.00 | 0.00 | 75 | 1013.8 |
| 20260904090518 | 44 | 116 | 0.0 | 0.0 | 0.00 | 0.00 | 0.00 | 75 | 1013.8 |
| 20260904090036 | 44 | 116 | 0.0 | 0.0 | 0.00 | 0.00 | 0.00 | 74 | 1013.7 |
| 20260904085522 | 44 | 116 | 0.0 | 0.0 | 0.00 | 0.03 | 0.00 | 74 | 1013.7 |
| 20260904085016 | 44 | 116 | 0.0 | 0.0 | 0.00 | 0.03 | 0.00 | 74 | 1013.6 |
| 20260904084534 | 44 | 116 | 0.0 | 0.0 | 0.00 | 0.03 | 0.00 | 75 | 1013.6 |
| 20260904084020 | 44 | 116 | 0.0 | 0.0 | 0.00 | 0.03 | 0.00 | 75 | 1013.6 |
| 20260904083523 | 43 | 116 | 0.0 | 0.0 | 0.00 | 0.03 | 0.00 | 75 | 1013.6 |
| 20260904082516 | 43 | 116 | 0.0 | 0.0 | 0.00 | 0.03 | 0.00 | 76 | 1013.6 |
| 20260904082018 | 43 | 116 | 0.0 | 0.0 | 0.00 | 0.03 | 0.00 | 76 | 1013.5 |
| 20260904081535 | 43 | 116 | 0.0 | 0.0 | 0.00 | 0.03 | 0.00 | 76 | 1013.5 |
| 20260904081017 | 43 | 116 | 0.0 | 0.0 | 0.00 | 0.03 | 0.00 | 75 | 1013.5 |
| 20260904080519 | 43 | 116 | 0.0 | 0.0 | 0.00 | 0.03 | 0.00 | 75 | 1013.6 |
| 20260904075519 | 43 | 116 | 0.0 | 0.0 | 0.00 | 0.03 | 0.00 | 75 | 1013.6 |
| 20260904075018 | 44 | 116 | 0.0 | 0.0 | 0.00 | 0.03 | 0.00 | 75 | 1013.6 |
| 20260904074016 | 43 | 116 | 0.0 | 0.0 | 0.00 | 0.03 | 0.00 | 74 | 1013.5 |
| 20260904073518 | 43 | 116 | 0.0 | 0.0 | 0.00 | 0.03 | 0.00 | 74 | 1013.5 |
| 20260904073040 | 43 | 116 | 0.0 | 0.0 | 0.00 | 0.03 | 0.00 | 74 | 1013.6 |
| 20260904072518 | 43 | 116 | 0.0 | 0.0 | 0.00 | 0.03 | 0.00 | 74 | 1013.6 |
| 20260904072015 | 43 | 116 | 0.0 | 0.0 | 0.00 | 0.03 | 0.00 | 75 | 1013.6 |
| 20260904071536 | 43 | 116 | 0.0 | 0.0 | 0.00 | 0.03 | 0.00 | 74 | 1013.6 |
| 20260904071017 | 43 | 116 | 0.0 | 0.0 | 0.00 | 0.03 | 0.00 | 75 | 1013.6 |
| 20260904070522 | 43 | 116 | 0.0 | 0.0 | 0.00 | 0.03 | 0.00 | 75 | 1013.6 |
| 20260904065519 | 43 | 116 | 0.0 | 0.0 | 0.00 | 0.03 | 0.03 | 75 | 1013.6 |
| 20260904065017 | 43 | 116 | 0.0 | 0.0 | 0.00 | 0.03 | 0.03 | 75 | 1013.6 |
| 20260904064022 | 43 | 116 | 0.0 | 0.0 | 0.00 | 0.03 | 0.03 | 74 | 1013.5 |
| 20260904063518 | 43 | 116 | 0.0 | 0.0 | 0.00 | 0.03 | 0.03 | 75 | 1013.6 |
| 20260904062520 | 43 | 116 | 0.0 | 0.0 | 0.00 | 0.03 | 0.03 | 75 | 1013.7 |
| 20260904062017 | 43 | 116 | 0.0 | 0.0 | 0.00 | 0.03 | 0.03 | 74 | 1013.7 |
| 20260904060518 | 44 | 116 | 0.0 | 0.0 | 0.00 | 0.03 | 0.03 | 74 | 1013.7 |
| 20260904055519 | 44 | 116 | 0.0 | 0.0 | 0.00 | 0.03 | 0.03 | 74 | 1013.7 |
| 20260904055020 | 44 | 116 | 0.0 | 0.0 | 0.00 | 0.03 | 0.03 | 72 | 1013.8 |
| 20260904054542 | 44 | 116 | 0.0 | 0.0 | 0.00 | 0.03 | 0.03 | 72 | 1013.7 |
| 20260904054018 | 44 | 116 | 0.0 | 0.0 | 0.00 | 0.03 | 0.03 | 72 | 1013.6 |
| 20260904053519 | 44 | 116 | 0.0 | 0.0 | 0.00 | 0.03 | 0.03 | 71 | 1013.6 |
| 20260904052025 | 44 | 116 | 0.0 | 0.0 | 0.00 | 0.03 | 0.03 | 71 | 1013.7 |
| 20260904051546 | 44 | 116 | 0.0 | 0.0 | 0.00 | 0.03 | 0.03 | 70 | 1013.7 |
| 20260904051018 | 44 | 116 | 0.0 | 0.0 | 0.00 | 0.03 | 0.03 | 70 | 1013.6 |
| 20260904050519 | 45 | 116 | 0.0 | 0.0 | 0.00 | 0.03 | 0.03 | 69 | 1013.8 |
| 20260904050044 | 45 | 116 | 0.0 | 0.0 | 0.00 | 0.03 | 0.03 | 68 | 1013.8 |
| 20260904045523 | 45 | 116 | 0.0 | 0.0 | 0.00 | 0.03 | 0.03 | 67 | 1013.7 |
| 20260904045017 | 45 | 116 | 0.0 | 0.0 | 0.00 | 0.03 | 0.03 | 68 | 1013.7 |
| 20260904044547 | 45 | 116 | 0.0 | 0.0 | 0.00 | 0.03 | 0.03 | 67 | 1013.8 |
| 20260904044016 | 45 | 116 | 0.0 | 0.0 | 0.00 | 0.03 | 0.03 | 67 | 1013.7 |
| 20260904043518 | 45 | 116 | 0.0 | 0.0 | 0.00 | 0.03 | 0.03 | 67 | 1013.8 |
| 20260904043045 | 45 | 116 | 0.0 | 0.0 | 0.00 | 0.03 | 0.03 | 67 | 1013.9 |
| 20260904042516 | 45 | 116 | 0.0 | 0.0 | 0.00 | 0.03 | 0.03 | 66 | 1013.9 |
| 20260904041542 | 46 | 116 | 0.0 | 0.0 | 0.00 | 0.03 | 0.03 | 66 | 1013.7 |
| 20260904041021 | 46 | 116 | 0.0 | 0.0 | 0.00 | 0.03 | 0.03 | 66 | 1013.8 |
| 20260904040517 | 46 | 116 | 0.0 | 0.0 | 0.00 | 0.03 | 0.03 | 64 | 1013.8 |
| 20260904040043 | 46 | 116 | 0.0 | 0.0 | 0.00 | 0.03 | 0.03 | 64 | 1013.8 |
| 20260904035516 | 46 | 116 | 0.0 | 0.0 | 0.00 | 0.03 | 0.03 | 64 | 1013.8 |
| 20260904035018 | 46 | 116 | 0.0 | 0.0 | 0.00 | 0.03 | 0.03 | 65 | 1013.7 |
| 20260904034557 | 46 | 116 | 0.0 | 0.0 | 0.00 | 0.03 | 0.03 | 66 | 1013.7 |
| 20260904034019 | 46 | 116 | 0.0 | 0.0 | 0.00 | 0.03 | 0.03 | 65 | 1013.8 |
| 20260904033518 | 47 | 116 | 0.0 | 0.0 | 0.00 | 0.03 | 0.03 | 65 | 1013.8 |
| 20260904033047 | 47 | 116 | 0.0 | 0.0 | 0.00 | 0.03 | 0.03 | 66 | 1013.8 |
| 20260904032515 | 47 | 116 | 0.0 | 0.0 | 0.00 | 0.03 | 0.03 | 67 | 1013.8 |
| 20260904032017 | 47 | 116 | 0.0 | 0.0 | 0.00 | 0.03 | 0.03 | 67 | 1013.8 |
| 20260904031544 | 47 | 116 | 0.0 | 0.0 | 0.00 | 0.03 | 0.03 | 66 | 1013.7 |
| 20260904030042 | 47 | 117 | 0.0 | 2.0 | 0.00 | 0.03 | 0.03 | 62 | 1013.6 |
| 20260904025517 | 48 | 117 | 0.0 | 0.0 | 0.00 | 0.03 | 0.03 | 62 | 1013.6 |
| 20260904025017 | 48 | 117 | 0.0 | 3.0 | 0.00 | 0.03 | 0.03 | 61 | 1013.6 |
| 20260904024542 | 48 | 117 | 0.0 | 3.0 | 0.00 | 0.03 | 0.03 | 61 | 1013.6 |
| 20260904024021 | 48 | 117 | 0.0 | 7.0 | 0.00 | 0.03 | 0.03 | 61 | 1013.5 |
| 20260904023521 | 48 | 117 | 0.0 | 7.0 | 0.00 | 0.03 | 0.03 | 60 | 1013.5 |
| 20260904023044 | 48 | 117 | 0.0 | 3.0 | 0.00 | 0.03 | 0.03 | 61 | 1013.5 |
| 20260904022519 | 48 | 117 | 0.0 | 3.0 | 0.00 | 0.03 | 0.03 | 60 | 1013.4 |
| 20260904022018 | 48 | 117 | 0.0 | 3.0 | 0.00 | 0.03 | 0.03 | 59 | 1013.4 |
| 20260904021548 | 48 | 117 | 0.0 | 3.0 | 0.00 | 0.03 | 0.03 | 58 | 1013.3 |
| 20260904020042 | 49 | 117 | 0.0 | 2.0 | 0.00 | 0.03 | 0.03 | 58 | 1013.2 |
| 20260904015517 | 49 | 117 | 0.0 | 8.0 | 0.00 | 0.03 | 0.03 | 58 | 1013.2 |
| 20260904015018 | 49 | 117 | 0.0 | 8.0 | 0.00 | 0.03 | 0.03 | 57 | 1013.2 |
| 20260904014547 | 49 | 117 | 1.0 | 8.0 | 0.00 | 0.03 | 0.03 | 56 | 1013.1 |
| 20260904014018 | 49 | 117 | 1.0 | 8.0 | 0.00 | 0.03 | 0.03 | 57 | 1013.1 |
| 20260904013517 | 50 | 118 | 0.0 | 7.0 | 0.00 | 0.03 | 0.03 | 57 | 1013.0 |
| 20260904013050 | 50 | 117 | 0.0 | 6.0 | 0.00 | 0.03 | 0.03 | 57 | 1013.0 |